This demonstration page uses our WeatherBlox Daily Observations layout. Learn more.

Left ArrowRight Arrow

Hourly Observations for June 14, 2016

Temp ( °F °C ) Dew Point ( °F °C ) Humidity (%) Winds ( mph kmh ) Pressure ( in mb ) Visibility ( mi km ) Precip ( " mm )
12:52 am 00:52 Clear 75 23.9 70 21.1 84 84 SSE 8 13 29.85 1011 10 16 0.00 0.00
1:52 am 01:52 Clear 74 23.3 70 21.1 88 88 S 8 13 29.85 1011 10 16 0.00 0.00
2:52 am 02:52 Partly Cloudy 73 22.8 70 21.1 90 90 S 6 9 29.83 1010 10 16 0.00 0.00
3:52 am 03:52 Partly Cloudy 73 22.8 69 20.6 87 87 S 7 11 29.82 1010 10 16 0.00 0.00
4:52 am 04:52 Partly Cloudy 72 22.2 69 20.6 91 91 SSE 8 13 29.80 1009 10 16 0.00 0.00
5:52 am 05:52 Clear 71 21.7 68 20 90 90 SSE 6 9 29.80 1009 10 16 0.00 0.00
6:52 am 06:52 Sunny 72 22.2 69 20.6 91 91 SSE 10 17 29.82 1010 10 16 0.00 0.00
7:52 am 07:52 Sunny 75 23.9 70 21.1 84 84 S 9 15 29.84 1011 10 16 0.00 0.00
8:52 am 08:52 Mostly Sunny 77 25 70 21.1 79 79 SSE 9 15 29.84 1010 10 16 0.00 0.00
9:52 am 09:52 Sunny 80 26.7 71 21.7 74 74 S 6 9 29.83 1010 10 16 0.00 0.00
10:52 am 10:52 Mostly Cloudy 83 28.3 70 21.1 65 65 SSE 9 15 29.82 1010 10 16 0.00 0.00
11:03 am 11:03 Partly Cloudy 84 29 70 21 62 62 SSE 10 17 29.80 1009 10 16 0.00 0.00
11:52 am 11:52 Mostly Cloudy 85 29.4 69 20.6 59 59 S 10 17 29.83 1010 10 16 0.00 0.00
12:52 pm 12:52 Mostly Cloudy 85 29.4 70 21.1 61 61 SSE 10 17 29.81 1009 10 16 0.00 0.00
1:52 pm 13:52 Mostly Sunny 88 31.1 70 21.1 55 55 SSW 13 20 29.78 1009 10 16 0.00 0.00
2:52 pm 14:52 Mostly Sunny 89 31.7 71 21.7 55 55 SSW 10 17 29.77 1008 10 16 0.00 0.00
3:52 pm 15:52 Partly Cloudy 89 31.7 70 21.1 53 53 S 12 19 29.75 1007 10 16 0.00 0.00
4:52 pm 16:52 Partly Cloudy 90 32.2 70 21.1 52 52 SSW 14 22 29.74 1007 10 16 0.00 0.00
5:52 pm 17:52 Sunny 90 32.2 70 21.1 52 52 WSW 14 22 29.73 1007 10 16 0.00 0.00
6:52 pm 18:52 Sunny 88 31.1 69 20.6 54 54 SW 12 19 29.73 1007 10 16 0.00 0.00
7:52 pm 19:52 Sunny 86 30 71 21.7 61 61 SW 7 11 29.75 1007 10 16 0.00 0.00
8:52 pm 20:52 Mostly Cloudy 81 27.2 71 21.7 72 72 SSW 8 13 29.76 1008 10 16 0.00 0.00
9:52 pm 21:52 Mostly Cloudy 81 27.2 72 22.2 74 74 SSW 7 11 29.78 1008 10 16 0.00 0.00
10:52 pm 22:52 Mostly Cloudy 81 27.2 72 22.2 74 74 S 7 11 29.79 1009 10 16 0.00 0.00
11:52 pm 23:52 Clear 78 25.6 71 21.7 79 79 SSW 8 13 29.80 1009 10 16 0.00 0.00

Powered by AerisWeather